TimeMST,TemperatureF,Dew PointF,Humidity,Sea Level PressureIn,VisibilityMPH,Wind Direction,Wind SpeedMPH,Gust SpeedMPH,PrecipitationIn,Events,Conditions,WindDirDegrees,DateUTC
12:57 AM,42.1,21.9,45,29.90,10.0,Calm,Calm,-,N/A,,Clear,0,2013-05-20 07:57:00
1:57 AM,37.0,21.9,54,29.90,10.0,Calm,Calm,-,N/A,,Clear,0,2013-05-20 08:57:00
2:57 AM,36.0,21.9,57,29.90,10.0,Calm,Calm,-,N/A,,Clear,0,2013-05-20 09:57:00
3:57 AM,35.1,21.9,59,29.91,10.0,WSW,3.5,-,N/A,,Clear,240,2013-05-20 10:57:00
4:57 AM,32.0,21.9,66,29.94,10.0,SW,3.5,-,N/A,,Clear,230,2013-05-20 11:57:00
5:57 AM,34.0,21.9,61,29.93,10.0,WSW,3.5,-,N/A,,Clear,240,2013-05-20 12:57:00
6:57 AM,46.0,24.1,42,29.90,10.0,WSW,4.6,-,N/A,,Clear,250,2013-05-20 13:57:00
7:57 AM,51.1,17.1,26,29.90,10.0,West,8.1,-,N/A,,Clear,270,2013-05-20 14:57:00
8:57 AM,53.1,19.0,26,29.91,10.0,Variable,6.9,-,N/A,,Clear,0,2013-05-20 15:57:00
9:57 AM,55.0,18.0,23,29.92,10.0,WSW,15.0,19.6,N/A,,Clear,240,2013-05-20 16:57:00
10:57 AM,57.0,16.0,20,29.92,10.0,WNW,6.9,23.0,N/A,,Clear,290,2013-05-20 17:57:00
11:57 AM,61.0,17.1,18,29.93,10.0,West,11.5,27.6,N/A,,Clear,280,2013-05-20 18:57:00
12:57 PM,60.1,15.1,17,29.94,10.0,North,8.1,-,N/A,,Clear,360,2013-05-20 19:57:00
1:57 PM,62.1,16.0,17,29.94,10.0,Variable,3.5,17.3,N/A,,Partly Cloudy,0,2013-05-20 20:57:00
2:57 PM,63.0,17.1,17,29.93,10.0,West,8.1,19.6,N/A,,Partly Cloudy,270,2013-05-20 21:57:00
3:57 PM,63.0,18.0,18,29.94,10.0,West,8.1,16.1,N/A,,Clear,270,2013-05-20 22:57:00
4:57 PM,64.9,18.0,16,29.93,10.0,North,8.1,-,N/A,,Partly Cloudy,350,2013-05-20 23:57:00
5:57 PM,64.0,18.0,17,29.93,10.0,NNW,6.9,-,N/A,,Clear,330,2013-05-21 00:57:00
6:57 PM,60.1,17.1,19,29.91,10.0,North,4.6,-,N/A,,Clear,350,2013-05-21 01:57:00
7:57 PM,55.0,19.0,24,29.93,10.0,NNE,3.5,-,N/A,,Clear,30,2013-05-21 02:57:00
8:57 PM,46.9,19.0,33,29.98,10.0,Calm,Calm,-,N/A,,Clear,0,2013-05-21 03:57:00
9:57 PM,45.0,19.0,36,30.00,10.0,Calm,Calm,-,N/A,,Clear,0,2013-05-21 04:57:00
10:57 PM,39.9,19.0,43,30.00,10.0,Calm,Calm,-,N/A,,Clear,0,2013-05-21 05:57:00
11:57 PM,37.0,18.0,46,29.99,10.0,Calm,Calm,-,N/A,,Clear,0,2013-05-21 06:57:00